Location: Ravensburg
(47.7866°N, 9.6124°E)
Time: 23:09:58
(UTC+02:00)

AO-85 - Pass Details

Date: 08 March 2026
Orbit: 507 x 686 km, 64.8° (Epoch: 11 April)

Event Time Altitude Azimuth Distance (km) Brightness Sun altitude
Rises 05:32:20 0° 177° (S) 2,734 ? -13.7°
Reaches altitude 10° 05:35:06 10° 158° (SSE) 1,811 ? -13.2°
Maximum altitude 05:37:54 18° 114° (ESE) 1,344 ? -12.8°
Drops below altitude 10° 05:40:38 10° 70° (ENE) 1,766 ? -12.3°
Sets 05:43:16 0° 52° (NE) 2,640 ? -11.9°
